Location: ?????????
(41.1143°N, 22.7905°E)
Time: 00:42:17
(UTC+00:00)

Hubble Space Telescope - Pass Details

Date: 13 December 2025
Orbit: 479 x 481 km, 28.5° (Epoch: 17 January)

Event Time Altitude Azimuth Distance (km) Brightness Sun altitude
Rises 17:18:38 0° 240° (WSW) 2,527 5.3 -25.1°
Reaches altitude 10° 17:22:10 10° 206° (SSW) 1,647 3.6 -25.8°
Enters shadow 17:23:17 11° 188° (S) 1,557 3.3 -26.0°
